[Date Prev][Date Next][Thread Prev][Thread Next][Date Index][Thread Index]

[jamsat-news:1115] jas2info #147



========================   最新情報   ==============================

        Last updated :Sat.3-Jul.-1999 17:40 (JST) #147

====================================================================
   
     衛星情報 FOシリーズの軌道要素、テレメトリ、QSOの状況等を
   まとめてみました.

  1)  FO−29(ふじ3号)は、7月3日(土)15:20(JST)の
     パスではJAアナログモードで運用されていました. 
       
 ■ 軌道要素1:「jamsat−keps:900」より (901?)
              SB KEPS @ AMSAT  $ORB99183.N
       2Line Orbital Elements 99183.AMSAT

 HR AMSAT ORBITAL ELEMENTS FOR AMATEUR SATELLITES IN NASA FORMAT
 FROM WA5QGD FORT WORTH,TX July 2, 1999
 SEND SUBSCRIBE/UNSUBSCRIBE TO majordomo@amsat.org ONLY
 BID: ORB99183.N
  
 DECODE 2-LINE ELSETS WITH THE FOLLOWING KEY:
 1 AAAAAU 00  0  0 BBBBB.BBBBBBBB  .CCCCCCCC  00000-0  00000-0 0  DDDZ
 2 AAAAA EEE.EEEE FFF.FFFF GGGGGGG HHH.HHHH III.IIII JJ.JJJJJJJJKKKKKZ
 KEY: A-CATALOGNUM B-EPOCHTIME C-DECAY D-ELSETNUM E-INCLINATION F-RAAN
 G-ECCENTRICITY H-ARGPERIGEE I-MNANOM J-MNMOTION K-ORBITNUM Z-CHECKSUM

 TO ALL RADIO AMATEURS BT

  FO-29
 1 24278U 96046B   99181.89495528  .00000046  00000-0  80579-4 0 02745
 2 24278 098.5641 131.2125 0352046 058.7517 304.7611 13.52671406141661

 ■ 軌道要素2:「jamsat−keps:900」より                         
         SB KEPS @ AMSAT  $ORB99183.O
         Orbital Elements  99183.OSCAR

 HR AMSAT ORBITAL ELEMENTS FOR OSCAR SATELLITES
 FROM WA5QGD FORT WORTH,TX July 2, 1999
 SEND SUBSCRIBE/UNSUBSCRIBE TO majordomo@amsat.org ONLY
 BID: ORB99183.O
 TO ALL RADIO AMATEURS BT
 
  Satellite: FO-29
 Catalog number: 24278
 Epoch time:      99181.89495528
 Element set:    0274
 Inclination:      098.5641 deg
 RA of node:       131.2125 deg
 Eccentricity:    0.0352046
 Arg of perigee:   058.7517 deg
 Mean anomaly:     304.7611 deg
 Mean motion:   13.52671406 rev/day
 Decay rate:        4.6e-07 rev/day^2
 Epoch rev:           14166
 Checksum:              322

 -----------------------------------------------------------
  2)FO−29(ふじ3号)の 7月3日(土)の15:20のパスでは
  JAアナログモードで運用されておりました.
  
  AS14198C1 3Jul99
  JST 15:20 - 15:30

 HI HI AE C7 88 55 1A 65 FF 0D 00 27 40 47 81 60 93 91 A0 79 BE BC BD BD BA 
 HI HI AE C7 88 55 1F 65 FF 0D 00 27 71 42 88 60 95 93 A1 99 BE BC BE BD BA 
 HI HI AE C7 88 55 04 65 FF 0D 00 27 86 3B 86 42 96 93 B0 8E BE BC BE BD BA 
 HI HI AE C7 88 55 09 65 FF 0D 00 27 53 34 8C 41 96 93 B0 85 BE BC BD BD BA 
 HI HI AE C7 88 55 0E 65 FF 0D 00 27 66 2F 8D 60 94 93 A2 78 BE BC BD BD BA 
 HI HI AE C7 88 55 13 65 0A 0D 00 27 77 2A 91 60 93 90 9F 67 BE BC BD BD BA 
 HI HI AE C7 88 55 18 65 FF 0D 00 27 66 27 94 60 93 90 B0 8D BD BB BD BD BA 
 HI HI AE C7 88 55 1D 65 FF 0D 00 27 66 27 98 60 94 91 B0 66 BD BB BD BD BB 
 HI HI AE C7 88 55 02 65 FF 0D 00 27 60 22 96 60 93 90 9F 6D BD BB BD BD BA
 HI HI AE C7 88 55 07 65 FF 0D 00 27 6C 22 96 60 94 91 B0 97 BD BB BD BD BA 
 HI HI AE C7 88 55 0D 65 0A 0D 00 27 6B 21 A1 60 93 90 B0 74 BD BB BD BD BA 
 HI HI AE C7 88 55 11 65 FF 0D 00 27 6B 22 A0 60 93 90 A1 7E BD BB BD BD BB 
 HI HI AE C7 88 55 17 65 FF 0D 00 27 57 23 9A 38 97 93 B0 CF BD BB BD BC BB 
 HI HI AE C7 88 55 1C 65 FF 0D 00 27 94 27 96 61 95 92 B0 6E BD BA BC BC BA 
 HI HI AE C7 88 55 01 65 FF 0D 00 27 6D 27 9A 61 95 92 B0 85 BD BA BC BC BA 
 HI HI AE C7 88 55 06 65 FF 0D 00 27 53 27       95 92 B0 7E 

  AS14170C  1Jul99
  JST  13:39 - 13:50

                                      4 35 76 60 94 90 B0 7D BT BB BD BD BA 
 HI HI AE C7 88 51 1F 5A FF 0D 00 27 5B 32 83 60 94 90 B0 8A BD BB BD BD BA 
 HI HI AE C7 88 51 04 5A 05 0D 00 27 6A 31 84 45 96 92 B0 92 BD BB BD BD BA 
 HI HI AE C7 88 55 09 5B 0A 0D 00 27 6E 26 80 60 93 90 9F 73 BD BB BD BD BA 
 HI HI AE C7 88 51 0E 5C FF 0D 00 27 72 2C 87 60 94 91 B0 8E BD BB BD BC BA 
 HI HI AE C7 88 51 13 5D FF 0D 00 27 6D 27 8C 60 93 90 B0 73 BD BB BC BC BA 
 HI HI AE C7 88 51 18 5E FF 1E 00 27 5A 26 88 60 96 93 B0 8D BD BB BC BC BA 
 HI HI AE C7 88 55 1D 5E 0A 0D 00 27 72 2C 8E 60 94 91 B0 8A BC BB BC BC BA 
 HI HI AE C7 88 51 02 5F FF 0D 00 27 89 2A 99 60 94 91 B0 89 BC BA BC BC BA 
 HI HI AE C7 88 51 05 60 FF 0I 00 27          60 94 91 B1    BC BA BC BC BA
 HI HI AE C7 88 51 0C 60 FF 0D 00 27 43 2C 92 60 94 91 B0 66 BC BA BC BC BA 
 HI HI AE C7 88 51 12 60 FF 0D 00 27 86 32 8E 60 93 91 B0 94 BC BA BC BC BA 
 HI HI AE C7 88 51 17 60 0A 0D 00 27 99 37 90 60 94 91 B0 79 BC BA BC BC BA 
 HI HI AE C7 88 51 1C 60 FF  S 00 27 44 3B 8E 5F 94 91 B0 7C BC BA BB BB BA 
 HI HI AE C7 88 51 01 60 FF 0D 00 27 3F 3F 89 60 93 90 B0 7D BC BA BB BB BA 
 HI HI AE C7 88 51 07 60 FF 0D 00 27 A8 45 8F 60 93 90 B0  	
 
 AS14157C   30Jun99
 JST 14:33 - 14:45

                                             60 94 91 B0 DB BD BB BD BC B9 
 HI HI AE C7 88 55 0C 59 FF 0D 00 27 7B 34 8B 60 94 91 B0 8D BD BB BD BC B9 
 HI HI AE C7 88 55 11 59 FF 0D 00 27 5C 34 8E 61 94 91 B0 69 BD BB BD BC BA 
 HI HI AE 07 88 55 16 59 0A 0D 00 27 5B 2E 8A 60 96 93 B0 90 BD BB BC BC BA 
 HI HI AE C7 88 55 1B 59 FF 0D 00 27 68 2A 88 60 93 90 B0 72 BD BB BC BC BA 
 HI HI AE C7 88 55 00 59 FF 0D 00 27 6C 29 8A 60 94 91 B0 5D BD BB BC BC BA 
 HI HI AE C7 88 55 05 59 FF 0D 00 27 71 25 96 60 93 90 B0 83 BC BB BC BC B9 
 HI HI AE C7 88 55 0B 59 FF 0D 00 27 5F 24 96 3C 93 90 B0 66 BC BA BC BC BA 
 HI HI AE C7 88 55 10 59 FF 0D 00 27 4F 27 94 60 94 91 B0 75 BC BA BC BC BA 
 HI HI AE C7 88 55 15 59 0A 0D 00 27 7B 2A 8F 60 93 90 B0 91 BC BA BC BC BA 
 HI HI AE 07 78 55 1A 59 FF 0D 00 27 88 26 90 60 93 90 B0 85 BC BA BB BB BA 
 HI HI AE C7 88 55 1F 59 FF 0D 00 27 48 28 8D 60 93 90 B0 7B BC BA BB BB BA 
 HI HI AE C7 88 55 04 59 FF 0D 00 27 47 36 8A 60 93 90 B0 78 BC BA BB BB BA 
 HI HI AE C7 88 55 09 59 05 0D 00 27 9B 3D 8D 60 93 90 B0 76 BB B9 BB BB BA 
 HI HI AE 07 88 55 0F 59 FF 0D 00 26 4A 34 8D 50 93 91 B0 84 BC B9 BB BB BA 
 HI HI AE C7 88 55 14 59 05 0D 00 26 49 3  8D 60 93 91  
  
 3)テレメトリ換算値例  
  
  AS14198C1 3Jul99
  JST 15:20 - 15:30 
  アナログテレメトリの最初の行の換算値例
  
 テレメトリ	内   容	     換算値	単 位
 3C	磁気センサーZ軸=   31372.5	nT
 3D	磁気センサX軸	=   34803.9	nT
 4A	太陽電池発生電流=    1264.7	mA
 4B	B充放電電流	=    -118.4	mA
 4C	B端子電圧	=      15.8	V
 4D	B中間端子電圧	=	7.0	V
 5A	バス電圧	=      15.7	V
 5B	JTA送信電力	=   688.4	mW
 5C 	構体温度1	=	8.1	℃
 5D	構体温度2	=	8.9	℃
 6A	構体温度3	=	8.5	℃
 6B	構体温度4	=	8.5	℃
 6C	Bセル温度	=	9.6	℃
  
  *計算処理は OFFICE 97 を使用.
  
 =====  FO - 29 (ふじ 3号)の自動解析プログラムの Ver. Up について ========
 
   FO−29の自動解析プログラムのVer.UPについてJE9PEL/1 局 脇田 美根夫氏が
  「jamsat-BB:4571」に投稿されてましたので転載させて頂きました.

  下記プログラムをバージョンアップしました。

 fo29tlme.zip : 衛星FO-29 テレメトリ自動解析プログラム(V5.5) 英語版
 fo29tlm5.lzh : 衛星FO-29 テレメトリ自動解析プログラム(V5.4) 日本語版
 fo29cwt2.lzh : 衛星FO-29 CWテレメトリ数値解析プログラム(V2.4) 〃 

 ----------------------------------------------
 Name : JE9PEL/1 脇田
 Mail : je9pel@jamsat.or.jp
 URL  : http://www.ne.jp/asahi/hamradio/je9pel/
 QTH  : Yokohama, Japan
 Date : 2 Jul. 1999
 ----------------------------------------------
 ==============================================================================
  4)FO−20(ふじ2号)のCWテレメトリは6月15日(火)18:56(JST)の
     パスではテレメトリーが単一トーンの連続音から唸りを伴った連続音、さらにゆらぎの
     ある信号になり、いままでより若干信号が弱くなっていました.

 -----------------------------  FO-20 軌道要素 ----------------------------------
 
 ■ 軌道要素1 :出典は「ふじ3号」に同じ. 
  
  FO-20
 1 20480U 90013C   99182.05968100 -.00000015  00000-0  29998-4 0 01625
 2 20480 099.0232 014.1413 0541250 133.1181 231.6526 12.83253565440115
 
 ■ 軌道要素2 :出典は「ふじ3号」に同じ.  
               
  Satellite: FO-20
 Catalog number: 20480
 Epoch time:      99182.05968100
 Element set:    0162
 Inclination:      099.0232 deg
 RA of node:       014.1413 deg
 Eccentricity:    0.0541250
 Arg of perigee:   133.1181 deg
 Mean anomaly:     231.6526 deg
 Mean motion:   12.83253565 rev/day
 Decay rate:       -1.5e-07 rev/day^2
 Epoch rev:           44011
 Checksum:              250
 
   =====================================================================

 5)JARL のホームページに新しい運用追加予定が記載されていましたのでご紹介します.
       ( http://www.jarl.or.jp/Japanese/3_Fuji/uy.htm )

        ■ ふじ3号/FO−29 ■  
  
   *** 運用予定について ***
    
   7月06日 〜 7月12日     デジタル系1200bpsメールボックス運用
   7月12日 〜 7月21日     アナログ運用
   7月21日 〜 7月26日     デジタル系1200bpsメールボックス運用
   7月26日 〜 8月09日     アナログ系運用
   
 なお,運用予定は都合により変更することがありますのでご了承願います.

 照会先 : lab@jarl.or.jp

 最新の情報はテレホンサービス(:03−3942−1000)をお聞きください。
   
  以後の運用に付きましては8月10日(火)にお知らせいたします。

        ■ ふじ2号/FO−20 ■      
            「ふじ2号」 現況                                                                                               
   JAS-1b/FO-20(ふじ2号)の不具合発生について
    JAS-1b(ふじ2号)のCWテレメトリ信号に,1997年10月12日12時
 (JST)の日本上空通過時,3桁の数字が繰り返されるはずが3個の長音の
  繰り返しとなっているという異常が発見されました。この不具合は次の通過時
  からは回復していましたが13日15時20分の通過時に再び観測されました。
  衛星のアナログ系中継モード動作は異常が無く,正常時のテレメトリ内容からは
  衛星の動作に異常は認められません。従って,直ちに衛星のミッションに影響す
  ることは無いと予想されますので,当面はアナログ系中継モードを継続します。
  衛星は既に打ち上げてから7年8ヶ月を経ておりますので,今後は監視を強化す
  る予定です。アマチュア各位のレポートをお待ちします.   
  
  以上  http://www.jarl.or.jp/Japanese/3_Fuji/fuji.htm
                                           
   =============   JAS-2 (ふじ3号)と現在までの情報   ===========
  
  A.電話によるふじ3号の運用情報
      社団法人日本アマチュア連盟によるサービス
           TEL .   03− 3942 − 1000
  B.アマチュア無線FAXサービス
      JARLによるふじ3号の軌道情報(オービットカレンダー)
         FAX No.  03− 3233 −0055
  C.WWWブラウザで情報を簡単に見れる人のためにJAS−2
     ふじ3号の衛星としての運用されるまでの名前)の概要、打ち上げ
     までの状況、運用中における状況を説明したホームページを紹介し
     ておきます.
     社団法人日本アマチュア無線連盟(JARL)のホームページ

          http://www.jarl.or.jp/Japanese/3_Fuji
 
     宇宙開発事業団(NASDA)ホームページ 
          http://www.nasda.go.jp/
         打上げ衛星 :地球観測プラットフォーム技術衛星(ADEOS) 
                       アマチュア衛星3号(JAS-2)
          http://yyy.tksc.nasda.go.jp/Home/Press/Press-j/jas-2_j.html        

  D.JAMSATによる軌道情報の活用
        JAMSATのホームページまたはjamsat−kepsの軌道要素より
      衛星の軌道情報を得る.
     JAMSATホームページ
               URL    http://www.jamsat.or.jp
       上記ホームページでは各地で行われるアマチュア通信衛星に関する
      ミューティングのお知らせや世界のアマチュア衛星に関する情報が
      満載されています.
   
 =========================================================================
       JAMSATのメンバーのご協力によりJH6MME(高山 秀造)が
    執筆・編集を担当しております.ご指摘の意見、疑問やこのようにしたら
    というアイデアがありましたら小さなことでもかまいませんので気軽に下
    記アドレスまでご連絡ください.jamsat−newsからjas2
    infoへの転載をJH4PHW局坂井さんに担当して頂いております.
                    E-mail : jh6mme@jamsat.or.jp : jh4phw@jamsat.or.jp
 ===============================   END  ===============================